Погода в Фэрбанксе

США     64°49′43″N   147°40′09″W
темп.,
°C
ветер,
м/с
пор.,
м/с
влажн.,
%
обл.,
%
осадки,
мм/ч
давл.,
гПа
погр.,
м
19 апреля, пн
пн1901:00−1ссв129976 0.0 102541
04:00−3ссв1110078 0.0 102526
07:00−3ссв119981 0.0 102545
10:00+2ююв009445 0.0 1024152
13:00+6ююв00868 0.0 1022213
16:00+8ююз11819 0.0 1021320
19:00+7ю119534 0.0 102030
22:00+1юз119854 0.0 102127
20 апреля, вт
вт2001:000юз1299100 0.0 102247
04:000з269499 0.0 1023151
07:000з368599 0.0 1026306
10:00+2зсз36644 0.0 1028811
13:00+4сз346194 0.0 10311264
16:00+5сз345479 0.1 10321524
19:00+4ссз24644 0.0 1033280
22:00−2ссз118521 0.0 103512
21 апреля, ср
ср2101:00−3с118398 0.0 103510
04:00−3св11875 0.0 103521
07:00−3св11865 0.0 103540
10:00+2всв23640 0.0 1034299
13:00+5в23520 0.0 1033773
16:00+7в23470 0.0 1031904
19:00+6св12680 0.0 102959
22:00+1ссв22782 0.0 102815
22 апреля, чт
чт2201:00−1св22805 0.0 102826
04:00−1св22812 0.0 102721
07:00−1св22805 0.0 102650
10:00+4всв24595 0.0 1025234
13:00+9всв35495 0.0 1024566
16:00+11в36525 0.0 1022702
19:00+9всв236914 0.0 102074
22:00+4св3480100 0.0 102043
23 апреля, пт
пт2301:00+2св2482100 0.0 102058
04:00+1св2381100 0.0 102039
07:00+1св237919 0.0 102149
10:00+6св13615 0.0 1020242
13:00+10всв12481 0.0 1020576
16:00+12в12445 0.0 1019695
19:00+12всв01555 0.0 1018149
22:00+7ссв22665 0.0 101810